DW8923 Weather Reports


Display with metric or nautical units.
time (UTC)temp
F
wind
direction
speed
MPH
gust
MPH
rain 1hr
in
rain 24hr
in
rain mn
in
humidity
%
barometer
mb
20260510081534 72 134 3.0 7.0 0.00 0.00 0.00 83 1009.0
20260510080018 72 148 1.0 7.0 0.00 0.00 0.00 82 1009.1
20260510074518 72 132 2.0 7.0 0.00 0.00 0.00 82 1009.2
20260510073016 73 150 2.0 6.0 0.00 0.00 0.00 81 1009.3
20260510071515 73 136 2.0 9.0 0.00 0.00 0.00 81 1009.3
20260510070013 73 115 3.0 6.0 0.00 0.00 0.00 80 1009.1
20260510064516 73 159 2.0 6.0 0.00 0.00 0.00 80 1009.1
20260510063016 73 151 1.0 4.0 0.00 0.00 0.00 79 1009.1
20260510061521 73 140 2.0 5.0 0.00 0.00 0.00 80 1009.1
20260510060009 73 180 1.0 5.0 0.00 0.00 0.00 82 1009.1
20260510054507 73 136 1.0 4.0 0.00 0.00 0.00 83 1009.0
20260510053006 73 130 1.0 3.0 0.00 0.00 0.00 86 1008.9
20260510051514 73 98 0.0 3.0 0.00 0.00 0.00 87 1009.0
20260510050059 73 123 0.0 1.0 0.00 0.00 0.00 86 1009.0
20260510044558 73 167 0.0 0.0 0.00 0.00 0.00 84 1008.9
20260510043100 74 167 0.0 0.0 0.00 0.00 0.00 82 1009.0
20260510041635 74 167 0.0 0.0 0.00 0.00 0.00 81 1009.1
20260510040056 75 97 0.0 0.0 0.00 0.00 0.00 80 1009.1
20260510034602 75 97 0.0 0.0 0.00 0.00 0.00 78 1008.8
20260510033116 76 97 0.0 0.0 0.00 0.00 0.00 79 1008.7
20260510031557 76 121 0.0 1.0 0.00 0.00 0.00 78 1008.6
20260510030055 77 121 0.0 1.0 0.00 0.00 0.00 76 1008.5
20260510024609 78 121 0.0 0.0 0.00 0.00 0.00 74 1008.1
20260510023059 79 121 0.0 0.0 0.00 0.00 0.00 71 1007.9
20260510021554 80 121 0.0 0.0 0.00 0.00 0.00 70 1007.7
20260510020053 81 121 0.0 2.0 0.00 0.00 0.00 70 1007.5
20260510014612 81 107 0.0 3.0 0.00 0.00 0.00 69 1007.3
20260510013102 82 141 1.0 4.0 0.00 0.00 0.00 68 1007.0
20260510011552 83 110 1.0 6.0 0.00 0.00 0.00 67 1007.0
20260510010051 84 111 2.0 4.0 0.00 0.00 0.00 66 1006.9
20260510004553 85 98 1.0 4.0 0.00 0.00 0.00 64 1006.8
20260510003050 86 94 2.0 7.0 0.00 0.00 0.00 61 1006.6
20260510001549 88 85 3.0 8.0 0.00 0.00 0.00 58 1006.6
20260510000048 90 119 1.0 5.0 0.00 0.00 0.00 51 1006.4
20260509234548 91 256 0.0 1.0 0.00 0.00 0.00 46 1006.3
20260509233051 91 256 0.0 2.0 0.00 0.00 0.00 45 1006.2
20260509231557 90 224 0.0 4.0 0.00 0.00 0.00 46 1006.2
20260509230046 90 261 3.0 10.0 0.00 0.00 0.00 47 1006.1
20260509224545 91 92 2.0 6.0 0.00 0.00 0.00 47 1006.2
20260509223050 91 99 1.0 3.0 0.00 0.00 0.00 47 1006.3
20260509221545 91 121 1.0 5.0 0.00 0.00 0.00 48 1006.1
20260509220045 91 99 0.0 5.0 0.00 0.00 0.00 48 1006.3
20260509214540 92 128 0.0 5.0 0.00 0.00 0.00 47 1006.4
20260509213036 92 135 1.0 4.0 0.00 0.00 0.00 45 1006.5
20260509211533 91 325 0.0 3.0 0.00 0.00 0.00 44 1006.8
20260509210041 91 321 0.0 3.0 0.00 0.00 0.00 45 1007.0
20260509204525 90 294 0.0 3.0 0.00 0.00 0.00 46 1007.3
20260509203024 90 144 1.0 4.0 0.00 0.00 0.00 47 1007.6
20260509201525 89 172 3.0 7.0 0.00 0.00 0.00 48 1007.9
20260509200016 89 109 1.0 6.0 0.00 0.00 0.00 50 1008.1
20260509194513 87 236 0.0 4.0 0.00 0.00 0.00 51 1008.1
20260509193009 86 44 0.0 4.0 0.00 0.00 0.00 58 1008.2
20260509191508 85 27 0.0 6.0 0.00 0.00 0.00 61 1008.4
20260509190006 84 339 1.0 4.0 0.00 0.00 0.00 68 1008.8
20260509184514 83 262 0.0 4.0 0.00 0.00 0.00 75 1008.9
20260509183004 81 313 0.0 3.0 0.00 0.00 0.00 78 1009.2
20260509181503 80 73 0.0 2.0 0.00 0.00 0.00 79 1009.5
20260509180002 80 116 0.0 3.0 0.00 0.00 0.00 78 1009.7
20260509174505 80 86 1.0 4.0 0.00 0.00 0.00 77 1009.6
20260509173002 80 35 0.0 3.0 0.00 0.00 0.00 84 1009.8
20260509171503 79 75 0.0 5.0 0.00 0.00 0.00 81 1010.1
20260509170122 80 94 1.0 4.0 0.00 0.00 0.00 77 1010.2
20260509164604 81 146 3.0 8.0 0.00 0.00 0.00 74 1009.9
20260509163059 84 134 1.0 10.0 0.00 0.00 0.00 71 1009.7
20260509161559 86 243 0.0 4.0 0.00 0.00 0.00 63 1009.9
20260509160059 86 137 0.0 4.0 0.00 0.00 0.00 64 1009.7
20260509154555 86 142 2.0 5.0 0.00 0.00 0.00 66 1009.5
20260509153052 84 123 1.0 4.0 0.00 0.00 0.00 71 1009.5
20260509151602 83 132 1.0 5.0 0.00 0.00 0.00 72 1009.3
20260509150048 82 221 2.0 8.0 0.00 0.00 0.00 74 1009.1
20260509144540 81 210 4.0 11.0 0.00 0.00 0.00 76 1008.8
20260509143037 79 178 2.0 9.0 0.00 0.00 0.00 81 1008.5
20260509141531 78 148 3.0 10.0 0.00 0.00 0.00 84 1008.4
20260509140026 76 131 2.0 7.0 0.00 0.00 0.00 89 1008.6
20260509134521 74 209 1.0 8.0 0.00 0.00 0.00 93 1008.9
20260509133017 73 126 1.0 4.0 0.00 0.00 0.00 95 1008.6
20260509131513 72 155 1.0 5.0 0.00 0.00 0.00 95 1008.3
20260509130034 71 220 1.0 3.0 0.00 0.00 0.00 95 1008.5
20260509124526 71 159 0.0 3.0 0.00 0.00 0.00 95 1008.6
20260509123011 70 246 2.0 5.0 0.00 0.00 0.00 95 1008.7
20260509121508 70 296 0.0 2.0 0.00 0.00 0.00 95 1009.2
20260509120013 70 129 0.0 0.0 0.00 0.00 0.00 95 1009.2
20260509114505 70 227 0.0 0.0 0.00 0.00 0.00 95 1009.5
20260509113005 71 323 0.0 0.0 0.00 0.00 0.00 95 1010.1
20260509111504 71 323 0.0 0.0 0.00 0.00 0.00 95 1010.2
20260509110004 71 323 0.0 0.0 0.00 0.00 0.00 95 1010.4
20260509104505 71 323 0.0 0.0 0.00 0.00 0.00 95 1010.6
20260509103001 71 360 0.0 0.0 0.00 0.00 0.00 94 1010.7
20260509101658 71 291 0.0 0.0 0.00 0.00 0.00 94 1010.4
20260509100056 71 291 0.0 2.0 0.00 0.00 0.00 94 1010.2
20260509094601 71 36 0.0 0.0 0.00 0.02 0.00 94 1009.8
20260509093058 71 311 0.0 0.0 0.00 0.02 0.00 94 1009.8
20260509091557 71 164 0.0 0.0 0.00 0.02 0.00 94 1009.0
20260509090057 71 164 0.0 0.0 0.00 0.02 0.00 93 1008.9
20260509084602 71 164 0.0 0.0 0.00 0.02 0.00 93 1009.0
20260509083052 72 164 0.0 0.0 0.00 0.02 0.00 92 1009.4